Location: Chuathbaluk
(61.5726°N, 159.2454°W)
Time: 12:58:17
(UTC+00:00)

XW-2F - Pass Details

Date: 18 January 2021
Orbit: 500 x 520 km, 97.5° (Epoch: 01 March)

Event Time Altitude Azimuth Distance (km) Brightness Sun altitude
Rises 03:43:16 0° 171° (S) 2,609 ? -10.7°
Reaches altitude 10° 03:45:22 10° 174° (S) 1,731 ? -10.9°
Maximum altitude 03:49:04 63° 256° (WSW) 579 ? -11.3°
Drops below altitude 10° 03:52:50 10° 339° (NNW) 1,757 ? -11.7°
Sets 03:54:58 0° 343° (NNW) 2,653 ? -11.9°
